Location: Tierz
(42.1336°N, 0.3549°W)
Time: 06:45:36
(UTC+00:00)

Cosmos 44 Rocket - Pass Details

Date: 29 October 2020
Orbit: 642 x 748 km, 65.1° (Epoch: 26 November)

Event Time Altitude Azimuth Distance (km) Brightness Sun altitude
Rises 18:10:22 0° 193° (SSW) 2,967 6.8 -13.8°
Reaches altitude 10° 18:12:43 10° 187° (S) 2,073 5.9 -14.3°
Maximum altitude 18:17:10 44° 116° (ESE) 937 3.6 -15.1°
Enters shadow 18:19:57 22° 55° (NE) 1,500 4.5 -15.6°
